TimeCST,TemperatureF,Dew PointF,Humidity,Sea Level PressureIn,VisibilityMPH,Wind Direction,Wind SpeedMPH,Gust SpeedMPH,PrecipitationIn,Events,Conditions,WindDirDegrees,DateUTC
12:15 AM,39.2,33.8,81,30.09,10.0,Calm,Calm,-,N/A,,Clear,0,2014-03-07 06:15:00
12:35 AM,41.0,33.8,76,30.09,10.0,East,5.8,-,N/A,,Clear,100,2014-03-07 06:35:00
12:55 AM,41.0,35.6,81,30.08,10.0,ESE,5.8,-,N/A,,Clear,110,2014-03-07 06:55:00
1:15 AM,41.0,35.6,81,30.07,10.0,ESE,5.8,-,N/A,,Clear,120,2014-03-07 07:15:00
1:35 AM,39.2,35.6,87,30.07,10.0,Calm,Calm,-,N/A,,Clear,0,2014-03-07 07:35:00
1:55 AM,39.2,35.6,87,30.07,10.0,Calm,Calm,-,N/A,,Clear,0,2014-03-07 07:55:00
2:15 AM,39.2,35.6,87,30.06,10.0,Calm,Calm,-,N/A,,Clear,0,2014-03-07 08:15:00
2:35 AM,39.2,35.6,87,30.04,10.0,East,5.8,-,N/A,,Clear,100,2014-03-07 08:35:00
2:55 AM,39.2,35.6,87,30.04,10.0,East,4.6,-,N/A,,Clear,90,2014-03-07 08:55:00
3:15 AM,39.2,35.6,87,30.03,10.0,East,4.6,-,N/A,,Clear,100,2014-03-07 09:15:00
3:35 AM,39.2,35.6,87,30.03,10.0,Calm,Calm,-,N/A,,Clear,0,2014-03-07 09:35:00
3:55 AM,39.2,35.6,87,30.03,10.0,Calm,Calm,-,N/A,,Clear,0,2014-03-07 09:55:00
4:15 AM,39.2,35.6,87,30.03,10.0,Calm,Calm,-,N/A,,Clear,0,2014-03-07 10:15:00
4:35 AM,39.2,35.6,87,30.02,10.0,Calm,Calm,-,N/A,,Clear,0,2014-03-07 10:35:00
4:55 AM,39.2,37.4,93,30.03,10.0,East,4.6,-,N/A,,Clear,90,2014-03-07 10:55:00
5:15 AM,41.0,37.4,87,30.02,10.0,East,4.6,-,N/A,,Clear,100,2014-03-07 11:15:00
5:35 AM,41.0,37.4,87,30.03,10.0,ESE,5.8,-,N/A,,Clear,110,2014-03-07 11:35:00
5:55 AM,41.0,37.4,87,30.04,10.0,Calm,Calm,-,N/A,,Clear,0,2014-03-07 11:55:00
6:15 AM,39.2,37.4,93,30.05,10.0,Calm,Calm,-,N/A,,Clear,0,2014-03-07 12:15:00
6:35 AM,41.0,37.4,87,30.04,10.0,ESE,5.8,-,N/A,,Clear,120,2014-03-07 12:35:00
6:55 AM,42.8,37.4,81,30.04,10.0,Calm,Calm,-,N/A,,Clear,0,2014-03-07 12:55:00
7:15 AM,42.8,37.4,81,30.05,9.0,Calm,Calm,-,N/A,,Clear,0,2014-03-07 13:15:00
7:35 AM,42.8,37.4,81,30.05,9.0,ESE,5.8,-,N/A,,Clear,110,2014-03-07 13:35:00
7:55 AM,42.8,39.2,87,30.05,9.0,ESE,4.6,-,N/A,,Clear,120,2014-03-07 13:55:00
8:15 AM,44.6,39.2,81,30.05,9.0,ESE,4.6,-,N/A,,Clear,120,2014-03-07 14:15:00
8:35 AM,46.4,39.2,76,30.06,10.0,SE,6.9,-,N/A,,Clear,130,2014-03-07 14:35:00
8:55 AM,48.2,41.0,76,30.05,10.0,SE,6.9,-,N/A,,Clear,140,2014-03-07 14:55:00
9:15 AM,51.8,41.0,67,30.04,10.0,SE,8.1,-,N/A,,Partly Cloudy,140,2014-03-07 15:15:00
9:35 AM,51.8,41.0,67,30.04,10.0,SE,6.9,-,N/A,,Clear,140,2014-03-07 15:35:00
9:55 AM,55.4,41.0,58,30.03,10.0,South,10.4,-,N/A,,Clear,190,2014-03-07 15:55:00
10:15 AM,57.2,41.0,55,30.03,10.0,South,8.1,-,N/A,,Clear,180,2014-03-07 16:15:00
10:35 AM,59.0,42.8,55,30.01,10.0,South,9.2,-,N/A,,Clear,180,2014-03-07 16:35:00
10:55 AM,60.8,42.8,52,29.99,10.0,South,13.8,18.4,N/A,,Clear,180,2014-03-07 16:55:00
11:15 AM,60.8,42.8,52,29.98,10.0,South,10.4,-,N/A,,Partly Cloudy,170,2014-03-07 17:15:00
11:35 AM,64.4,44.6,49,29.99,10.0,South,10.4,18.4,N/A,,Partly Cloudy,170,2014-03-07 17:35:00
11:55 AM,64.4,44.6,49,29.99,10.0,South,9.2,-,N/A,,Clear,180,2014-03-07 17:55:00
12:15 PM,66.2,44.6,46,29.98,10.0,SW,9.2,-,N/A,,Clear,220,2014-03-07 18:15:00
12:35 PM,69.8,44.6,40,29.97,10.0,South,9.2,-,N/A,,Clear,190,2014-03-07 18:35:00
12:55 PM,69.8,42.8,38,29.94,10.0,SSW,12.7,-,N/A,,Clear,200,2014-03-07 18:55:00
1:15 PM,71.6,42.8,35,29.92,10.0,SSE,15.0,20.7,N/A,,Clear,160,2014-03-07 19:15:00
1:35 PM,71.6,41.0,33,29.90,10.0,South,16.1,21.9,N/A,,Clear,180,2014-03-07 19:35:00
1:55 PM,71.6,41.0,33,29.90,10.0,South,12.7,18.4,N/A,,Clear,170,2014-03-07 19:55:00
2:15 PM,71.6,41.0,33,29.89,10.0,South,16.1,24.2,N/A,,Clear,190,2014-03-07 20:15:00
2:35 PM,71.6,42.8,35,29.88,10.0,South,12.7,19.6,N/A,,Clear,170,2014-03-07 20:35:00
2:55 PM,73.4,42.8,33,29.88,6.0,SSW,17.3,-,N/A,,Haze,200,2014-03-07 20:55:00
3:15 PM,71.6,42.8,35,29.87,10.0,South,11.5,19.6,N/A,,Clear,170,2014-03-07 21:15:00
3:35 PM,71.6,41.0,33,29.87,10.0,SSW,17.3,21.9,N/A,,Clear,200,2014-03-07 21:35:00
3:55 PM,69.8,42.8,38,29.87,10.0,SSW,12.7,18.4,N/A,,Clear,200,2014-03-07 21:55:00
4:15 PM,69.8,42.8,38,29.87,10.0,South,11.5,16.1,N/A,,Clear,190,2014-03-07 22:15:00
4:35 PM,69.8,42.8,38,29.87,10.0,South,12.7,18.4,N/A,,Clear,180,2014-03-07 22:35:00
4:55 PM,68.0,42.8,40,29.88,10.0,South,12.7,17.3,N/A,,Clear,170,2014-03-07 22:55:00
5:15 PM,68.0,42.8,40,29.87,10.0,South,13.8,18.4,N/A,,Clear,180,2014-03-07 23:15:00
5:35 PM,66.2,42.8,43,29.88,10.0,South,15.0,19.6,N/A,,Clear,180,2014-03-07 23:35:00
5:50 PM,66.2,44.6,46,29.88,10.0,South,10.4,16.1,N/A,,Clear,180,2014-03-07 23:50:00
6:15 PM,64.4,44.6,49,29.88,10.0,South,6.9,-,N/A,,Clear,170,2014-03-08 00:15:00
6:35 PM,64.4,44.6,49,29.89,10.0,SSE,4.6,-,N/A,,Clear,160,2014-03-08 00:35:00
6:55 PM,62.6,42.8,48,29.89,10.0,South,6.9,-,N/A,,Clear,170,2014-03-08 00:55:00
7:15 PM,62.6,42.8,48,29.89,10.0,South,6.9,-,N/A,,Clear,170,2014-03-08 01:15:00
7:35 PM,62.6,42.8,48,29.90,10.0,SSE,4.6,-,N/A,,Clear,160,2014-03-08 01:35:00
7:55 PM,60.8,42.8,52,29.91,10.0,Calm,Calm,-,N/A,,Clear,0,2014-03-08 01:55:00
8:15 PM,60.8,42.8,52,29.92,10.0,Calm,Calm,-,N/A,,Clear,0,2014-03-08 02:15:00
8:35 PM,60.8,44.6,55,29.92,10.0,SSE,4.6,-,N/A,,Clear,160,2014-03-08 02:35:00
8:55 PM,59.0,44.6,59,29.92,10.0,Calm,Calm,-,N/A,,Clear,0,2014-03-08 02:55:00
9:15 PM,57.2,42.8,59,29.92,10.0,SE,4.6,-,N/A,,Clear,140,2014-03-08 03:15:00
9:35 PM,55.4,42.8,63,29.92,10.0,Calm,Calm,-,N/A,,Clear,0,2014-03-08 03:35:00
9:55 PM,53.6,42.8,67,29.92,10.0,Calm,Calm,-,N/A,,Clear,0,2014-03-08 03:55:00
10:15 PM,53.6,42.8,67,29.92,10.0,Calm,Calm,-,N/A,,Clear,0,2014-03-08 04:15:00
10:30 PM,53.6,42.8,67,29.92,10.0,Calm,Calm,-,N/A,,Clear,0,2014-03-08 04:30:00
10:55 PM,51.8,44.6,76,29.92,10.0,Calm,Calm,-,N/A,,Clear,0,2014-03-08 04:55:00
11:15 PM,51.8,44.6,76,29.92,10.0,Calm,Calm,-,N/A,,Clear,0,2014-03-08 05:15:00
11:35 PM,53.6,44.6,72,29.92,10.0,SE,5.8,-,N/A,,Clear,130,2014-03-08 05:35:00
11:55 PM,53.6,44.6,72,29.92,10.0,SE,5.8,-,N/A,,Clear,130,2014-03-08 05:55:00